SCP
0 0 0 0 0 0 0 0 0 0 0 0 0 0 0 0 0 0 0 0 0 0 0 0 0 0 0 0 0 0 0 0 -0 -0 0 1 1 1 0 0 0 0 0
0 0 0 0 0 0 0 0 0 0 0 0 0 0 0 0 0 0 0 0 0 0 0 0 0 0 0 -0 -0 -0 -0 0 0 -0 0 0 0 0 0 0 0 0 0
0 0 0 0 0 0 0 0 0 0 0 0 0 0 0 0 0 0 0 0 0 0 0 0 0 0 -0 0 0 -0 -0 -0 -0 0 0 0 0 0 0 0 0 0 0
0 0 0 0 0 0 0 0 0 0 0 0 0 0 0 0 0 0 0 0 0 0 -0 -0 -0 -0 -0 0 0 -0 -0 0 -0 -0 0 0 0 0 0 0 0 0 0
0 0 0 0 0 0 0 0 0 0 0 0 0 0 0 0 0 -0 -0 -0 0 0 0 -0 0 -0 -0 -0 0 -0 -0 -0 0 0 0 0 0 0 0 0 0 0 0
0 0 0 0 0 0 0 0 0 0 0 0 0 0 0 0 -0 -0 0 -0 0 0 -0 0 0 0 0 -0 -0 -0 -0 0 0 0 0 0 0 0 0 0 0 0 0
0 0 0 0 0 0 0 0 0 0 0 0 0 0 0 -0 -0 -0 -0 0 0 0 0 0 0 0 -0 -0 -0 -0 -0 -0 0 0 0 0 0 0 0 0 0 0 0
0 0 0 0 0 0 0 0 0 0 0 0 0 0 0 0 -0 -0 -0 0 0 -0 -0 -0 -0 -0 -0 -0 -0 -0 -0 0 0 0 0 0 0 0 0 0 0 0 0
0 0 0 0 0 0 0 0 0 0 0 0 0 0 0 0 0 0 0 0 0 -0 -0 -0 -0 -0 -0 -0 -0 -0 -0 -0 0 0 0 0 0 0 0 0 0 0 0
0 0 -0 -0 -0 0 0 -0 0 0 0 0 0 0 0 0 -0 0 0 0 0 0 0 -0 -0 -0 -0 -0 -0 -0 0 -0 -0 -0 0 0 0 0 0 0 0 0 0
-0 -0 -0 -0 0 0 -0 -0 0 -0 -0 0 0 -0 -0 0 0 -0 0 -0 -0 0 0 0 0 -0 -0 -0 -0 -0 0 -0 -0 -0 0 0 0 -0 0 0 0 0 0
-0 0 -0 -0 -0 -0 0 0 0 -0 0 0 0 -0 -0 0 -0 -0 0 0 -0 0 -0 0 -0 0 -0 -0 -0 -0 -0 -0 -0 -0 -0 -0 -0 0 0 0 0 0 0
0 -0 -0 0 0 0 0 0 0 -0 0 -0 0 0 0 0 0 -0 0 0 0 0 0 -0 -0 0 -0 -0 -0 -0 -0 -0 -0 0 0 0 0 0 0 0 0 0 0
0 -0 -0 -0 0 0 0 0 0 -0 -0 0 -0 0 -0 -0 -0 0 0 0 0 0 0 -0 -0 0 -0 -0 -0 -0 0 0 0 0 0 0 0 0 0 0 0 0 0
0 0 0 0 -0 0 -0 -0 -0 0 -0 -0 0 0 0 0 -0 -0 0 0 0 0 0 -0 0 0 0 0 0 0 0 0 0 0 0 0 0 0 0 0 0 0 0
0 0 -0 -0 -0 0 0 0 0 0 0 -0 -0 -0 -0 -0 -0 -0 -0 -0 -0 -0 0 0 0 0 0 0 0 0 0 0 0 0 0 0 0 0 0 0 0 0 0
0 -0 0 -0 -0 -0 0 0 0 0 0 0 0 0 -0 -0 -0 -0 -0 -0 0 0 0 0 0 0 0 0 0 0 0 0 0 0 0 0 0 0 0 0 0 0 0
0 -0 0 0 0 0 -0 0 -0 0 -0 -0 -0 0 -0 -0 0 0 0 0 0 0 0 0 0 0 0 0 0 0 0 0 0 0 0 0 0 0 0 0 0 0 -0
0 -0 0 0 -0 -0 0 0 0 0 0 0 0 -0 0 0 0 0 0 0 0 0 0 0 0 0 0 0 0 0 0 0 0 0 0 0 0 0 0 0 0 -0 -0
0 -0 -0 0 0 0 0 0 0 0 0 -0 -0 -0 -0 0 0 0 0 0 0 0 0 0 0 0 0 0 0 0 0 0 0 0 0 0 0 0 0 0 0 0 0
-0 0 0 0 0 0 0 0 0 -0 -0 -0 0 0 0 0 0 0 0 0 0 0 0 0 0 0 0 0 0 0 0 0 0 0 0 0 0 0 0 0 0 0 0
-0 -0 0 0 0 0 0 0 0 -0 -0 -0 -0 0 0 0 0 0 0 0 0 0 0 0 0 0 0 0 0 0 0 0 -0 -0 -0 -0 0 0 0 0 0 0 0
-0 -0 -0 -0 0 0 0 0 0 0 -0 -0 0 0 0 0 0 0 0 0 0 0 0 0 0 0 0 0 0 0 0 0 0 0 0 0 0 0 0 0 0 0 0
-0 -0 -0 0 0 0 0 0 0 -0 -0 -0 0 0 0 0 0 0 0 0 0 0 0 0 0 0 0 0 0 0 0 0 0 0 0 0 0 0 0 0 0 0 0
0 0 0 -0 0 0 0 0 0 0 -0 0 0 0 0 0 0 0 0 0 0 0 0 0 0 0 0 -0 -0 0 0 0 0 0 0 0 0 0 0 0 0 0 0
-0 0 -0 -0 -0 0 0 0 0 0 -0 0 0 0 0 0 0 0 0 0 0 0 0 0 0 0 -0 0 -0 -0 0 0 0 0 0 0 0 0 0 0 0 0 0
Wind_Speed_500mb
44 45 45 45 48 47 49 54 55 57 59 65 64 66 66 68 64 61 60 59 57 55 51 48 47 43 46 46 43 46 47 55 59 69 48 33 23 19 23 28 28 34 32
43 44 43 44 44 47 50 52 55 56 60 62 63 63 62 62 59 58 57 57 57 53 47 43 41 37 42 40 39 41 52 47 55 64 53 36 29 27 25 22 28 32 27
43 43 42 43 43 45 48 49 53 58 58 58 58 57 57 53 51 51 54 59 45 38 33 36 37 33 36 37 36 39 41 46 56 57 57 31 36 24 21 19 25 34 30
41 40 39 39 40 44 49 51 50 54 54 54 53 52 50 48 47 48 45 40 15 15 21 23 27 30 34 34 32 35 35 41 46 49 47 33 26 25 24 23 26 27 27
38 37 35 36 40 48 47 45 48 51 50 49 51 51 48 49 50 43 34 28 22 16 14 11 9 16 25 29 28 28 27 29 31 37 37 40 33 26 26 32 32 32 28
34 33 35 37 52 45 44 42 47 53 58 54 51 52 51 53 49 38 29 24 19 15 12 12 13 18 25 24 24 27 33 32 19 11 28 33 31 36 34 35 36 37 23
31 33 37 43 37 48 57 49 51 57 64 68 58 57 56 53 46 36 33 32 30 27 22 16 11 10 9 14 18 25 28 34 31 31 26 24 30 29 26 28 24 23 18
34 42 37 33 38 42 43 48 55 54 59 66 72 65 61 61 46 39 44 51 55 53 48 42 34 27 20 12 12 16 15 17 17 19 19 19 10 8 9 11 16 12 11
34 36 33 34 36 40 40 47 50 50 54 55 66 69 75 60 57 53 56 61 63 64 64 60 57 54 47 42 42 47 48 48 44 34 30 31 31 31 29 24 25 25 20
33 32 32 34 34 36 39 39 39 39 45 49 55 59 60 68 60 50 54 57 62 61 59 58 54 53 51 46 52 50 53 48 43 38 39 38 36 32 28 21 13 14 15
29 28 30 32 32 34 37 40 40 35 35 37 40 51 51 46 54 62 54 48 52 57 54 52 50 47 46 46 43 39 38 34 35 30 27 25 27 19 12 14 14 14 11
27 27 31 32 31 32 35 39 39 38 35 33 37 35 40 35 42 45 48 48 50 48 38 42 46 45 39 35 34 33 29 23 20 21 21 20 19 17 16 12 2 7 8
32 32 30 31 31 31 35 38 43 41 37 33 35 32 36 40 40 29 35 37 40 35 39 30 29 27 28 29 22 23 26 27 23 21 22 20 19 20 17 18 17 13 6
32 32 30 31 31 29 28 34 39 48 43 39 33 36 34 35 44 49 39 35 33 26 25 29 30 30 29 29 30 30 30 28 26 23 21 19 16 15 13 11 7 7 7
31 30 34 30 31 30 31 36 33 53 58 50 44 32 42 37 38 37 38 37 34 27 25 25 32 33 33 34 33 31 27 24 25 22 21 19 16 15 14 13 9 6 1
30 27 32 30 31 30 28 31 34 41 45 54 49 52 33 30 25 28 31 29 28 26 30 34 32 31 31 30 29 27 27 27 25 22 21 19 17 17 15 14 11 8 3
28 30 28 31 29 31 30 29 30 33 35 43 53 52 60 44 19 22 32 34 27 32 33 32 32 31 30 29 29 28 28 28 25 22 19 18 16 16 19 16 13 9 5
27 27 27 29 30 29 29 29 28 28 28 30 37 39 52 49 44 33 30 32 36 40 39 38 36 35 34 33 31 29 27 26 25 22 18 18 18 17 17 17 13 8 8
28 28 25 27 29 29 29 28 28 29 29 31 33 31 39 39 41 39 39 37 35 37 39 39 40 40 39 37 35 32 29 29 28 25 21 17 17 15 14 14 15 13 8
24 35 29 26 27 28 29 30 29 29 30 30 36 36 32 33 37 37 38 39 39 42 43 43 42 42 42 40 37 35 33 30 27 25 22 19 14 12 9 9 9 6 6
22 24 27 24 27 28 28 29 30 30 30 30 31 40 40 33 33 34 36 39 42 42 43 44 46 48 45 41 38 34 31 29 26 24 21 17 15 11 5 4 6 4 7
21 21 23 24 26 26 27 29 28 30 31 30 29 31 35 31 32 33 35 39 39 41 45 52 54 56 54 43 37 34 30 29 26 21 18 15 14 7 2 10 3 7 10
19 20 22 24 23 25 26 27 30 31 30 30 29 31 31 31 34 35 35 37 40 45 42 45 48 60 48 40 35 33 31 30 27 20 15 12 7 1 9 11 10 12 15
17 19 21 21 25 24 27 28 29 32 31 29 29 30 30 33 34 35 36 37 39 41 43 43 56 54 45 42 37 33 30 28 24 15 9 5 2 12 16 15 17 18 24
15 17 19 21 22 24 25 28 29 30 29 28 30 27 31 34 36 37 38 40 42 41 43 54 57 50 46 40 33 31 27 21 16 11 8 9 20 21 20 21 24 24 26
16 17 19 20 22 24 26 27 29 28 29 29 26 29 33 36 36 38 39 46 47 45 48 58 52 48 44 41 34 30 25 19 16 15 21 27 25 24 24 24 23 25 25
Wind_Direction_500mb
330 329 324 318 318 319 320 324 319 321 319 325 325 322 318 317 317 312 307 304 297 291 283 271 266 257 259 264 259 250 243 248 263 267 271 285 253 253 266 269 259 261 263
331 327 325 322 325 326 333 326 330 331 331 329 328 326 326 322 320 317 314 309 299 290 283 274 267 263 252 260 259 253 245 250 255 266 254 272 257 259 268 245 240 240 248
330 332 332 331 333 336 336 340 348 342 339 339 338 336 333 331 329 327 326 316 296 286 286 271 261 252 250 259 258 255 254 248 244 259 260 268 256 261 265 258 240 234 230
338 339 339 343 351 348 355 352 352 344 346 346 349 348 346 342 344 345 344 349 341 322 308 277 259 248 245 246 261 259 255 253 244 243 253 254 254 274 273 262 241 235 229
348 354 358 2 1 7 358 0 1 354 357 356 359 1 2 3 359 351 353 6 17 14 8 352 308 269 255 246 255 260 262 277 253 246 241 244 254 267 269 247 232 229 219
13 8 11 19 15 9 9 7 8 15 16 13 12 11 13 15 5 2 356 359 358 343 325 303 290 273 268 258 242 245 257 266 265 285 251 249 252 263 259 242 237 218 205
8 1 7 358 19 22 14 16 16 21 22 23 24 25 26 24 18 22 38 37 39 39 37 27 8 346 315 243 227 238 253 262 259 267 277 256 254 254 256 238 225 218 218
4 2 5 7 2 1 1 6 21 23 23 23 29 33 34 34 30 39 59 65 65 61 61 60 62 60 59 104 169 212 232 249 256 249 238 238 211 184 159 179 171 167 145
8 5 6 7 3 1 0 355 9 14 20 21 26 28 34 37 44 50 60 66 68 68 68 64 68 71 73 84 92 94 92 88 87 88 96 107 112 116 114 105 121 126 133
4 5 3 2 2 360 359 357 358 1 3 15 15 21 27 36 39 45 52 59 64 66 66 68 65 67 70 70 69 75 75 71 71 72 79 90 96 88 87 80 51 166 157
0 360 358 0 1 1 360 0 1 5 1 5 12 16 21 29 38 39 44 53 63 62 60 61 62 61 64 65 71 71 70 67 69 76 76 75 72 71 87 91 99 109 162
355 357 357 356 355 5 3 3 5 11 8 12 13 20 18 24 40 37 30 37 41 53 53 49 52 50 55 64 60 65 64 60 82 71 68 63 62 51 44 41 109 178 159
4 4 2 360 3 8 9 12 16 17 17 17 18 17 15 15 23 42 36 23 24 31 43 46 49 48 41 43 44 55 43 44 49 49 46 43 44 41 36 21 19 17 346
4 5 7 5 12 11 17 20 21 25 23 21 24 15 14 12 18 28 22 16 22 19 37 26 31 28 29 39 40 42 45 41 36 35 33 28 24 23 20 24 28 358 331
4 8 7 9 12 14 357 12 21 21 23 25 30 22 18 16 20 33 29 26 31 29 36 36 39 40 38 36 31 31 29 36 34 28 24 20 16 18 11 8 13 18 80
7 13 9 14 16 15 16 356 7 13 21 18 29 34 26 22 30 38 36 24 33 47 42 38 34 31 28 22 21 20 17 18 23 19 15 17 16 9 15 10 8 27 76
8 11 13 14 16 14 15 17 14 5 10 16 14 19 19 19 36 53 48 34 47 46 39 33 30 26 22 19 17 14 12 8 6 13 11 7 8 11 9 12 11 38 64
14 10 17 13 14 16 16 16 17 21 22 15 9 22 16 18 40 47 56 43 39 40 37 32 27 23 20 15 12 8 5 360 4 5 5 4 360 10 13 10 17 39 63
12 13 19 14 12 17 17 18 19 20 21 19 23 26 13 12 27 32 37 35 29 26 25 23 22 20 16 13 9 6 3 357 358 356 356 354 353 4 13 9 15 18 42
4 5 23 15 15 19 19 18 20 22 21 19 23 23 21 21 27 26 26 27 26 26 23 21 17 12 9 6 3 0 358 356 355 352 352 352 350 356 353 18 23 349 39
8 9 11 19 19 23 19 18 18 19 21 21 17 17 23 25 25 21 19 17 20 21 18 16 13 8 2 357 354 354 354 354 351 348 346 347 342 337 339 91 43 23 76
6 10 12 24 17 18 24 19 20 18 18 18 18 16 18 21 20 18 13 13 16 15 16 12 5 357 352 350 350 349 350 348 345 342 344 344 347 356 97 127 77 94 86
12 15 16 18 24 22 19 21 16 20 16 16 18 19 14 17 15 10 9 9 9 6 2 355 352 350 354 353 353 350 348 346 345 340 340 350 352 300 139 136 116 105 102
20 19 23 24 18 23 23 19 19 16 17 18 21 19 13 14 10 9 7 3 5 358 358 347 346 352 352 349 349 348 346 346 346 348 345 356 360 130 136 121 114 107 108
24 24 25 22 23 24 21 20 19 16 17 24 24 15 13 12 10 5 3 2 7 353 350 347 352 356 356 357 357 353 351 354 2 19 54 87 120 125 121 117 110 114 115
31 32 29 27 28 25 23 21 18 22 23 25 20 17 12 10 5 1 4 3 2 356 345 350 358 2 3 5 8 11 14 30 48 74 99 114 116 115 110 109 113 113 108
Wind_Speed_850mb
44 45 45 45 48 47 49 54 55 57 59 65 64 66 66 68 64 61 60 59 57 55 51 48 47 43 46 46 43 46 47 55 59 69 48 33 23 19 23 28 28 34 32
43 44 43 44 44 47 50 52 55 56 60 62 63 63 62 62 59 58 57 57 57 53 47 43 41 37 42 40 39 41 52 47 55 64 53 36 29 27 25 22 28 32 27
43 43 42 43 43 45 48 49 53 58 58 58 58 57 57 53 51 51 54 59 45 38 33 36 37 33 36 37 36 39 41 46 56 57 57 31 36 24 21 19 25 34 30
41 40 39 39 40 44 49 51 50 54 54 54 53 52 50 48 47 48 45 40 15 15 21 23 27 30 34 34 32 35 35 41 46 49 47 33 26 25 24 23 26 27 27
38 37 35 36 40 48 47 45 48 51 50 49 51 51 48 49 50 43 34 28 22 16 14 11 9 16 25 29 28 28 27 29 31 37 37 40 33 26 26 32 32 32 28
34 33 35 37 52 45 44 42 47 53 58 54 51 52 51 53 49 38 29 24 19 15 12 12 13 18 25 24 24 27 33 32 19 11 28 33 31 36 34 35 36 37 23
31 33 37 43 37 48 57 49 51 57 64 68 58 57 56 53 46 36 33 32 30 27 22 16 11 10 9 14 18 25 28 34 31 31 26 24 30 29 26 28 24 23 18
34 42 37 33 38 42 43 48 55 54 59 66 72 65 61 61 46 39 44 51 55 53 48 42 34 27 20 12 12 16 15 17 17 19 19 19 10 8 9 11 16 12 11
34 36 33 34 36 40 40 47 50 50 54 55 66 69 75 60 57 53 56 61 63 64 64 60 57 54 47 42 42 47 48 48 44 34 30 31 31 31 29 24 25 25 20
33 32 32 34 34 36 39 39 39 39 45 49 55 59 60 68 60 50 54 57 62 61 59 58 54 53 51 46 52 50 53 48 43 38 39 38 36 32 28 21 13 14 15
29 28 30 32 32 34 37 40 40 35 35 37 40 51 51 46 54 62 54 48 52 57 54 52 50 47 46 46 43 39 38 34 35 30 27 25 27 19 12 14 14 14 11
27 27 31 32 31 32 35 39 39 38 35 33 37 35 40 35 42 45 48 48 50 48 38 42 46 45 39 35 34 33 29 23 20 21 21 20 19 17 16 12 2 7 8
32 32 30 31 31 31 35 38 43 41 37 33 35 32 36 40 40 29 35 37 40 35 39 30 29 27 28 29 22 23 26 27 23 21 22 20 19 20 17 18 17 13 6
32 32 30 31 31 29 28 34 39 48 43 39 33 36 34 35 44 49 39 35 33 26 25 29 30 30 29 29 30 30 30 28 26 23 21 19 16 15 13 11 7 7 7
31 30 34 30 31 30 31 36 33 53 58 50 44 32 42 37 38 37 38 37 34 27 25 25 32 33 33 34 33 31 27 24 25 22 21 19 16 15 14 13 9 6 1
30 27 32 30 31 30 28 31 34 41 45 54 49 52 33 30 25 28 31 29 28 26 30 34 32 31 31 30 29 27 27 27 25 22 21 19 17 17 15 14 11 8 3
28 30 28 31 29 31 30 29 30 33 35 43 53 52 60 44 19 22 32 34 27 32 33 32 32 31 30 29 29 28 28 28 25 22 19 18 16 16 19 16 13 9 5
27 27 27 29 30 29 29 29 28 28 28 30 37 39 52 49 44 33 30 32 36 40 39 38 36 35 34 33 31 29 27 26 25 22 18 18 18 17 17 17 13 8 8
28 28 25 27 29 29 29 28 28 29 29 31 33 31 39 39 41 39 39 37 35 37 39 39 40 40 39 37 35 32 29 29 28 25 21 17 17 15 14 14 15 13 8
24 35 29 26 27 28 29 30 29 29 30 30 36 36 32 33 37 37 38 39 39 42 43 43 42 42 42 40 37 35 33 30 27 25 22 19 14 12 9 9 9 6 6
22 24 27 24 27 28 28 29 30 30 30 30 31 40 40 33 33 34 36 39 42 42 43 44 46 48 45 41 38 34 31 29 26 24 21 17 15 11 5 4 6 4 7
21 21 23 24 26 26 27 29 28 30 31 30 29 31 35 31 32 33 35 39 39 41 45 52 54 56 54 43 37 34 30 29 26 21 18 15 14 7 2 10 3 7 10
19 20 22 24 23 25 26 27 30 31 30 30 29 31 31 31 34 35 35 37 40 45 42 45 48 60 48 40 35 33 31 30 27 20 15 12 7 1 9 11 10 12 15
17 19 21 21 25 24 27 28 29 32 31 29 29 30 30 33 34 35 36 37 39 41 43 43 56 54 45 42 37 33 30 28 24 15 9 5 2 12 16 15 17 18 24
15 17 19 21 22 24 25 28 29 30 29 28 30 27 31 34 36 37 38 40 42 41 43 54 57 50 46 40 33 31 27 21 16 11 8 9 20 21 20 21 24 24 26
16 17 19 20 22 24 26 27 29 28 29 29 26 29 33 36 36 38 39 46 47 45 48 58 52 48 44 41 34 30 25 19 16 15 21 27 25 24 24 24 23 25 25
Wind_Direction_850mb
330 329 324 318 318 319 320 324 319 321 319 325 325 322 318 317 317 312 307 304 297 291 283 271 266 257 259 264 259 250 243 248 263 267 271 285 253 253 266 269 259 261 263
331 327 325 322 325 326 333 326 330 331 331 329 328 326 326 322 320 317 314 309 299 290 283 274 267 263 252 260 259 253 245 250 255 266 254 272 257 259 268 245 240 240 248
330 332 332 331 333 336 336 340 348 342 339 339 338 336 333 331 329 327 326 316 296 286 286 271 261 252 250 259 258 255 254 248 244 259 260 268 256 261 265 258 240 234 230
338 339 339 343 351 348 355 352 352 344 346 346 349 348 346 342 344 345 344 349 341 322 308 277 259 248 245 246 261 259 255 253 244 243 253 254 254 274 273 262 241 235 229
348 354 358 2 1 7 358 0 1 354 357 356 359 1 2 3 359 351 353 6 17 14 8 352 308 269 255 246 255 260 262 277 253 246 241 244 254 267 269 247 232 229 219
13 8 11 19 15 9 9 7 8 15 16 13 12 11 13 15 5 2 356 359 358 343 325 303 290 273 268 258 242 245 257 266 265 285 251 249 252 263 259 242 237 218 205
8 1 7 358 19 22 14 16 16 21 22 23 24 25 26 24 18 22 38 37 39 39 37 27 8 346 315 243 227 238 253 262 259 267 277 256 254 254 256 238 225 218 218
4 2 5 7 2 1 1 6 21 23 23 23 29 33 34 34 30 39 59 65 65 61 61 60 62 60 59 104 169 212 232 249 256 249 238 238 211 184 159 179 171 167 145
8 5 6 7 3 1 0 355 9 14 20 21 26 28 34 37 44 50 60 66 68 68 68 64 68 71 73 84 92 94 92 88 87 88 96 107 112 116 114 105 121 126 133
4 5 3 2 2 360 359 357 358 1 3 15 15 21 27 36 39 45 52 59 64 66 66 68 65 67 70 70 69 75 75 71 71 72 79 90 96 88 87 80 51 166 157
0 360 358 0 1 1 360 0 1 5 1 5 12 16 21 29 38 39 44 53 63 62 60 61 62 61 64 65 71 71 70 67 69 76 76 75 72 71 87 91 99 109 162
355 357 357 356 355 5 3 3 5 11 8 12 13 20 18 24 40 37 30 37 41 53 53 49 52 50 55 64 60 65 64 60 82 71 68 63 62 51 44 41 109 178 159
4 4 2 360 3 8 9 12 16 17 17 17 18 17 15 15 23 42 36 23 24 31 43 46 49 48 41 43 44 55 43 44 49 49 46 43 44 41 36 21 19 17 346
4 5 7 5 12 11 17 20 21 25 23 21 24 15 14 12 18 28 22 16 22 19 37 26 31 28 29 39 40 42 45 41 36 35 33 28 24 23 20 24 28 358 331
4 8 7 9 12 14 357 12 21 21 23 25 30 22 18 16 20 33 29 26 31 29 36 36 39 40 38 36 31 31 29 36 34 28 24 20 16 18 11 8 13 18 80
7 13 9 14 16 15 16 356 7 13 21 18 29 34 26 22 30 38 36 24 33 47 42 38 34 31 28 22 21 20 17 18 23 19 15 17 16 9 15 10 8 27 76
8 11 13 14 16 14 15 17 14 5 10 16 14 19 19 19 36 53 48 34 47 46 39 33 30 26 22 19 17 14 12 8 6 13 11 7 8 11 9 12 11 38 64
14 10 17 13 14 16 16 16 17 21 22 15 9 22 16 18 40 47 56 43 39 40 37 32 27 23 20 15 12 8 5 360 4 5 5 4 360 10 13 10 17 39 63
12 13 19 14 12 17 17 18 19 20 21 19 23 26 13 12 27 32 37 35 29 26 25 23 22 20 16 13 9 6 3 357 358 356 356 354 353 4 13 9 15 18 42
4 5 23 15 15 19 19 18 20 22 21 19 23 23 21 21 27 26 26 27 26 26 23 21 17 12 9 6 3 0 358 356 355 352 352 352 350 356 353 18 23 349 39
8 9 11 19 19 23 19 18 18 19 21 21 17 17 23 25 25 21 19 17 20 21 18 16 13 8 2 357 354 354 354 354 351 348 346 347 342 337 339 91 43 23 76
6 10 12 24 17 18 24 19 20 18 18 18 18 16 18 21 20 18 13 13 16 15 16 12 5 357 352 350 350 349 350 348 345 342 344 344 347 356 97 127 77 94 86
12 15 16 18 24 22 19 21 16 20 16 16 18 19 14 17 15 10 9 9 9 6 2 355 352 350 354 353 353 350 348 346 345 340 340 350 352 300 139 136 116 105 102
20 19 23 24 18 23 23 19 19 16 17 18 21 19 13 14 10 9 7 3 5 358 358 347 346 352 352 349 349 348 346 346 346 348 345 356 360 130 136 121 114 107 108
24 24 25 22 23 24 21 20 19 16 17 24 24 15 13 12 10 5 3 2 7 353 350 347 352 356 356 357 357 353 351 354 2 19 54 87 120 125 121 117 110 114 115
31 32 29 27 28 25 23 21 18 22 23 25 20 17 12 10 5 1 4 3 2 356 345 350 358 2 3 5 8 11 14 30 48 74 99 114 116 115 110 109 113 113 108